| time (UTC) | temp F | wind direction | speed MPH | gust MPH | rain 1hr in | rain 24hr in | rain mn in | humidity % | barometer mb |
| 20260906014522 | 74 | 58 | 0.0 | 2.0 | 0.00 | 0.00 | 0.00 | 21 | 1019.6 |
| 20260906013018 | 77 | 28 | 1.0 | 4.0 | 0.00 | 0.00 | 0.00 | 19 | 1019.7 |
| 20260906011532 | 79 | 42 | 1.0 | 2.0 | 0.00 | 0.00 | 0.00 | 18 | 1019.7 |
| 20260906010032 | 81 | 212 | 2.0 | 3.0 | 0.00 | 0.00 | 0.00 | 19 | 1019.6 |
| 20260906004510 | 81 | 193 | 2.0 | 5.0 | 0.00 | 0.00 | 0.00 | 18 | 1019.5 |
| 20260906003032 | 81 | 210 | 2.0 | 7.0 | 0.00 | 0.00 | 0.00 | 18 | 1019.4 |
| 20260906001525 | 81 | 165 | 1.0 | 10.0 | 0.00 | 0.00 | 0.00 | 18 | 1019.4 |
| 20260906000035 | 80 | 162 | 6.0 | 10.0 | 0.00 | 0.00 | 0.00 | 17 | 1019.5 |
| 20260905234532 | 81 | 163 | 3.0 | 8.0 | 0.00 | 0.00 | 0.00 | 17 | 1019.4 |
| 20260905233012 | 81 | 173 | 4.0 | 8.0 | 0.00 | 0.00 | 0.00 | 17 | 1019.5 |
| 20260905231518 | 82 | 155 | 6.0 | 12.0 | 0.00 | 0.00 | 0.00 | 15 | 1019.4 |
| 20260905230027 | 82 | 200 | 5.0 | 14.0 | 0.00 | 0.00 | 0.00 | 15 | 1019.2 |
| 20260905224530 | 81 | 150 | 5.0 | 12.0 | 0.00 | 0.00 | 0.00 | 16 | 1019.4 |
| 20260905223034 | 82 | 181 | 7.0 | 16.0 | 0.00 | 0.00 | 0.00 | 17 | 1019.4 |
| 20260905221531 | 80 | 205 | 3.0 | 13.0 | 0.00 | 0.00 | 0.00 | 19 | 1019.5 |
| 20260905220023 | 82 | 260 | 3.0 | 11.0 | 0.00 | 0.00 | 0.00 | 17 | 1019.5 |
| 20260905214525 | 81 | 54 | 8.0 | 15.0 | 0.00 | 0.00 | 0.00 | 18 | 1019.8 |
| 20260905213008 | 81 | 167 | 8.0 | 16.0 | 0.00 | 0.00 | 0.00 | 18 | 1019.8 |
| 20260905211532 | 81 | 115 | 6.0 | 18.0 | 0.00 | 0.00 | 0.00 | 18 | 1019.9 |
| 20260905210030 | 81 | 241 | 3.0 | 13.0 | 0.00 | 0.00 | 0.00 | 18 | 1020.0 |
| 20260905204504 | 80 | 144 | 6.0 | 14.0 | 0.00 | 0.00 | 0.00 | 19 | 1020.0 |
| 20260905203005 | 80 | 158 | 5.0 | 17.0 | 0.00 | 0.00 | 0.00 | 21 | 1020.2 |
| 20260905201514 | 79 | 218 | 2.0 | 11.0 | 0.00 | 0.00 | 0.00 | 22 | 1020.2 |
| 20260905200014 | 77 | 174 | 4.0 | 12.0 | 0.00 | 0.00 | 0.00 | 22 | 1020.4 |
| 20260905194522 | 79 | 210 | 4.0 | 14.0 | 0.00 | 0.00 | 0.00 | 22 | 1020.5 |
| 20260905193009 | 78 | 58 | 5.0 | 12.0 | 0.00 | 0.00 | 0.00 | 20 | 1020.5 |
| 20260905191514 | 78 | 155 | 5.0 | 11.0 | 0.00 | 0.00 | 0.00 | 23 | 1020.7 |
| 20260905190018 | 77 | 211 | 4.0 | 10.0 | 0.00 | 0.00 | 0.00 | 25 | 1020.9 |
| 20260905184520 | 76 | 211 | 6.0 | 12.0 | 0.00 | 0.00 | 0.00 | 26 | 1021.2 |
| 20260905183023 | 76 | 226 | 4.0 | 16.0 | 0.00 | 0.00 | 0.00 | 25 | 1021.3 |
| 20260905181504 | 77 | 212 | 5.0 | 11.0 | 0.00 | 0.00 | 0.00 | 25 | 1021.4 |
| 20260905180010 | 75 | 173 | 8.0 | 16.0 | 0.00 | 0.00 | 0.00 | 25 | 1021.4 |
| 20260905174520 | 74 | 162 | 3.0 | 11.0 | 0.00 | 0.00 | 0.00 | 28 | 1021.7 |
| 20260905173030 | 69 | 63 | 1.0 | 5.0 | 0.00 | 0.00 | 0.00 | 43 | 1021.7 |
| 20260905171526 | 66 | 27 | 0.0 | 4.0 | 0.00 | 0.00 | 0.00 | 44 | 1021.7 |
| 20260905170018 | 63 | 274 | 0.0 | 4.0 | 0.00 | 0.00 | 0.00 | 45 | 1021.9 |
| 20260905164510 | 62 | 283 | 1.0 | 3.0 | 0.00 | 0.00 | 0.00 | 48 | 1022.1 |
| 20260905163024 | 60 | 234 | 2.0 | 5.0 | 0.00 | 0.00 | 0.00 | 49 | 1022.2 |
| 20260905161523 | 58 | 268 | 1.0 | 4.0 | 0.00 | 0.00 | 0.00 | 50 | 1022.1 |
| 20260905160030 | 57 | 278 | 2.0 | 3.0 | 0.00 | 0.00 | 0.00 | 54 | 1022.1 |
| 20260905154509 | 56 | 283 | 0.0 | 0.0 | 0.00 | 0.00 | 0.00 | 57 | 1022.1 |
| 20260905153017 | 54 | 74 | 0.0 | 0.0 | 0.00 | 0.00 | 0.00 | 60 | 1022.2 |
| 20260905151534 | 52 | 83 | 0.0 | 0.0 | 0.00 | 0.00 | 0.00 | 63 | 1022.3 |
| 20260905150027 | 49 | 133 | 0.0 | 0.0 | 0.00 | 0.00 | 0.00 | 70 | 1022.3 |
| 20260905144530 | 45 | 134 | 0.0 | 0.0 | 0.00 | 0.00 | 0.00 | 78 | 1022.5 |
| 20260905143011 | 44 | 174 | 0.0 | 0.0 | 0.00 | 0.00 | 0.00 | 79 | 1022.5 |
| 20260905141516 | 45 | 174 | 0.0 | 0.0 | 0.00 | 0.00 | 0.00 | 79 | 1022.3 |
| 20260905140026 | 45 | 174 | 0.0 | 1.0 | 0.00 | 0.00 | 0.00 | 79 | 1022.3 |
| 20260905134529 | 45 | 141 | 0.0 | 1.0 | 0.00 | 0.00 | 0.00 | 77 | 1022.1 |
| 20260905133030 | 45 | 68 | 0.0 | 1.0 | 0.00 | 0.00 | 0.00 | 75 | 1022.0 |
| 20260905131537 | 45 | 68 | 0.0 | 1.0 | 0.00 | 0.00 | 0.00 | 75 | 1021.9 |
| 20260905130021 | 45 | 182 | 0.0 | 0.0 | 0.00 | 0.00 | 0.00 | 75 | 1021.6 |
| 20260905124538 | 46 | 148 | 0.0 | 0.0 | 0.00 | 0.00 | 0.00 | 74 | 1021.5 |
| 20260905123028 | 46 | 148 | 0.0 | 0.0 | 0.00 | 0.00 | 0.00 | 72 | 1021.3 |
| 20260905121535 | 47 | 148 | 0.0 | 1.0 | 0.00 | 0.00 | 0.00 | 71 | 1021.1 |
| 20260905120035 | 47 | 153 | 0.0 | 0.0 | 0.00 | 0.00 | 0.00 | 72 | 1021.1 |
| 20260905114536 | 48 | 151 | 0.0 | 0.0 | 0.00 | 0.00 | 0.00 | 68 | 1021.1 |
| 20260905113036 | 48 | 150 | 0.0 | 0.0 | 0.00 | 0.00 | 0.00 | 66 | 1021.0 |
| 20260905111533 | 48 | 167 | 0.0 | 0.0 | 0.00 | 0.00 | 0.00 | 67 | 1021.0 |
| 20260905110034 | 49 | 13 | 0.0 | 0.0 | 0.00 | 0.00 | 0.00 | 65 | 1020.9 |
| 20260905104516 | 49 | 14 | 0.0 | 0.0 | 0.00 | 0.00 | 0.00 | 64 | 1020.8 |
| 20260905103033 | 50 | 295 | 0.0 | 0.0 | 0.00 | 0.00 | 0.00 | 63 | 1020.7 |
| 20260905101508 | 50 | 359 | 0.0 | 0.0 | 0.00 | 0.00 | 0.00 | 63 | 1020.5 |
| 20260905100018 | 51 | 271 | 0.0 | 2.0 | 0.00 | 0.00 | 0.00 | 62 | 1020.4 |
| 20260905094514 | 50 | 61 | 0.0 | 2.0 | 0.00 | 0.00 | 0.00 | 62 | 1020.4 |
| 20260905093020 | 50 | 126 | 0.0 | 1.0 | 0.00 | 0.00 | 0.00 | 64 | 1020.3 |
| 20260905091525 | 50 | 131 | 0.0 | 2.0 | 0.00 | 0.00 | 0.00 | 68 | 1020.3 |
| 20260905090016 | 52 | 43 | 0.0 | 1.0 | 0.00 | 0.00 | 0.00 | 58 | 1020.2 |
| 20260905084529 | 51 | 31 | 0.0 | 1.0 | 0.00 | 0.00 | 0.00 | 62 | 1020.3 |
| 20260905083020 | 50 | 23 | 0.0 | 2.0 | 0.00 | 0.00 | 0.00 | 68 | 1020.3 |
| 20260905081521 | 52 | 158 | 0.0 | 3.0 | 0.00 | 0.00 | 0.00 | 61 | 1020.1 |
| 20260905080035 | 52 | 41 | 3.0 | 5.0 | 0.00 | 0.00 | 0.00 | 57 | 1019.9 |
| 20260905074505 | 52 | 60 | 1.0 | 3.0 | 0.00 | 0.00 | 0.00 | 60 | 1020.0 |
| 20260905073024 | 54 | 86 | 0.0 | 7.0 | 0.00 | 0.00 | 0.00 | 56 | 1019.8 |
| 20260905071522 | 54 | 21 | 2.0 | 8.0 | 0.00 | 0.00 | 0.00 | 58 | 1019.8 |
| 20260905070029 | 52 | 51 | 3.0 | 10.0 | 0.00 | 0.00 | 0.00 | 60 | 1020.1 |
| 20260905064530 | 53 | 150 | 1.0 | 2.0 | 0.00 | 0.00 | 0.00 | 58 | 1019.4 |
| 20260905063018 | 54 | 138 | 0.0 | 0.0 | 0.00 | 0.00 | 0.00 | 52 | 1019.5 |
| 20260905061514 | 54 | 59 | 0.0 | 0.0 | 0.00 | 0.00 | 0.00 | 51 | 1019.2 |
| 20260905060022 | 54 | 59 | 0.0 | 0.0 | 0.00 | 0.00 | 0.00 | 49 | 1018.9 |
| 20260905054527 | 54 | 107 | 0.0 | 0.0 | 0.00 | 0.00 | 0.00 | 52 | 1018.7 |
| 20260905053032 | 54 | 141 | 0.0 | 1.0 | 0.00 | 0.00 | 0.00 | 54 | 1018.7 |
| 20260905051525 | 56 | 139 | 0.0 | 2.0 | 0.00 | 0.00 | 0.00 | 51 | 1018.5 |
| 20260905050027 | 57 | 42 | 2.0 | 3.0 | 0.00 | 0.00 | 0.00 | 43 | 1018.5 |
| 20260905044525 | 57 | 88 | 1.0 | 2.0 | 0.00 | 0.00 | 0.00 | 43 | 1018.6 |
| 20260905043030 | 58 | 287 | 1.0 | 4.0 | 0.00 | 0.00 | 0.00 | 43 | 1018.7 |
| 20260905041537 | 58 | 25 | 0.0 | 0.0 | 0.00 | 0.00 | 0.00 | 45 | 1018.5 |
| 20260905040015 | 60 | 36 | 0.0 | 0.0 | 0.00 | 0.00 | 0.00 | 38 | 1018.6 |
| 20260905034544 | 61 | 253 | 0.0 | 0.0 | 0.00 | 0.00 | 0.00 | 37 | 1018.6 |
| 20260905033033 | 62 | 359 | 2.0 | 3.0 | 0.00 | 0.00 | 0.00 | 35 | 1018.2 |
| 20260905031538 | 66 | 68 | 0.0 | 3.0 | 0.00 | 0.00 | 0.00 | 29 | 1018.1 |
| 20260905030038 | 67 | 45 | 1.0 | 5.0 | 0.00 | 0.00 | 0.00 | 28 | 1018.1 |
| 20260905024539 | 68 | 60 | 0.0 | 3.0 | 0.00 | 0.00 | 0.00 | 27 | 1017.9 |
| 20260905023032 | 71 | 133 | 2.0 | 5.0 | 0.00 | 0.00 | 0.00 | 24 | 1017.8 |
| 20260905021528 | 71 | 46 | 2.0 | 6.0 | 0.00 | 0.00 | 0.00 | 24 | 1017.7 |
| 20260905020007 | 71 | 113 | 2.0 | 4.0 | 0.00 | 0.00 | 0.00 | 24 | 1017.7 |